FW2951 Weather Reports


time (UTC)temp
C
wind
direction
speed
KPH
gust
KPH
rain 1hr
cm
rain 24hr
cm
rain mn
cm
humidity
%
barometer
mb
20260508131557 12 0 0.0 1.6 0.00 0.00 0.00 59 1017.1
20260508131045 12 0 0.0 1.6 0.00 0.00 0.00 62 1017.2
20260508130548 12 0 0.0 4.8 0.00 0.00 0.00 62 1017.1
20260508130053 12 0 0.0 4.8 0.00 0.00 0.00 64 1017.1
20260508125545 11 0 0.0 9.7 0.00 0.00 0.00 64 1017.2
20260508125045 11 0 0.0 9.7 0.00 0.00 0.00 66 1017.3
20260508124557 11 0 0.0 0.0 0.00 0.00 0.00 69 1017.3
20260508124041 10 0 0.0 0.0 0.00 0.00 0.00 72 1017.2
20260508123545 10 0 0.0 1.6 0.00 0.00 0.00 76 1017.2
20260508123106 9 0 0.0 1.6 0.00 0.00 0.00 77 1017.2
20260508122544 8 0 0.0 1.6 0.00 0.00 0.00 85 1017.2
20260508122044 8 0 0.0 1.6 0.00 0.00 0.00 86 1017.2
20260508121558 7 0 0.0 1.6 0.00 0.00 0.00 86 1017.2
20260508121046 7 0 0.0 0.0 0.00 0.00 0.00 87 1017.1
20260508120545 7 0 0.0 0.0 0.00 0.00 0.00 88 1017.1
20260508120055 6 0 0.0 0.0 0.00 0.00 0.00 89 1017.1
20260508115546 6 0 0.0 0.0 0.00 0.00 0.00 91 1016.9
20260508115044 6 0 0.0 0.0 0.00 0.00 0.00 92 1017.0
20260508114553 5 0 0.0 0.0 0.00 0.00 0.00 93 1017.0
20260508114049 5 0 0.0 0.0 0.00 0.00 0.00 94 1017.0
20260508113545 5 0 0.0 0.0 0.00 0.00 0.00 94 1017.0
20260508113106 4 0 0.0 0.0 0.00 0.00 0.00 94 1016.9
20260508112542 4 0 0.0 0.0 0.00 0.00 0.00 94 1017.0
20260508112047 3 0 0.0 0.0 0.00 0.00 0.00 94 1017.0
20260508111557 3 0 0.0 0.0 0.00 0.00 0.00 94 1016.8
20260508111046 3 0 0.0 0.0 0.00 0.00 0.00 94 1016.8
20260508110545 2 0 0.0 0.0 0.00 0.00 0.00 94 1016.6
20260508110057 2 0 0.0 0.0 0.00 0.00 0.00 93 1016.6
20260508105543 2 0 0.0 0.0 0.00 0.00 0.00 93 1016.6
20260508105045 2 0 0.0 0.0 0.00 0.00 0.00 92 1016.6
20260508104555 2 0 0.0 0.0 0.00 0.00 0.00 92 1016.6
20260508104045 2 0 0.0 0.0 0.00 0.00 0.00 92 1016.6
20260508103543 2 0 0.0 0.0 0.00 0.00 0.00 92 1016.6
20260508103059 2 0 0.0 0.0 0.00 0.00 0.00 92 1016.6
20260508102542 2 0 0.0 0.0 0.00 0.00 0.00 92 1016.6
20260508102043 2 0 0.0 0.0 0.00 0.00 0.00 92 1016.5
20260508101559 2 0 0.0 0.0 0.00 0.00 0.00 92 1016.5
20260508101044 2 0 0.0 0.0 0.00 0.00 0.00 92 1016.4
20260508100547 2 0 0.0 0.0 0.00 0.00 0.00 92 1016.3
20260508100055 2 0 0.0 0.0 0.00 0.00 0.00 92 1016.3
20260508095545 2 0 0.0 0.0 0.00 0.00 0.00 91 1016.3
20260508095042 2 0 0.0 0.0 0.00 0.00 0.00 92 1016.3
20260508094610 2 0 0.0 0.0 0.00 0.00 0.00 92 1016.2
20260508094046 2 0 0.0 0.0 0.00 0.00 0.00 92 1016.2
20260508093543 2 0 0.0 0.0 0.00 0.00 0.00 92 1016.1
20260508093053 2 0 0.0 0.0 0.00 0.00 0.00 91 1016.1
20260508092543 2 0 0.0 0.0 0.00 0.00 0.00 91 1016.1
20260508092043 2 0 0.0 0.0 0.00 0.00 0.00 91 1016.2
20260508091553 2 0 0.0 0.0 0.00 0.00 0.00 91 1016.2
20260508091043 2 0 0.0 0.0 0.00 0.00 0.00 91 1016.1
20260508090543 2 0 0.0 0.0 0.00 0.00 0.00 91 1016.0
20260508090054 2 0 0.0 0.0 0.00 0.00 0.00 91 1016.1
20260508085542 3 0 0.0 0.0 0.00 0.00 0.00 91 1016.0
20260508085044 3 0 0.0 0.0 0.00 0.00 0.00 91 1016.0
20260508084555 3 0 0.0 0.0 0.00 0.00 0.00 91 1015.9
20260508084045 3 0 0.0 0.0 0.00 0.00 0.00 91 1015.9
20260508083547 3 0 0.0 0.0 0.00 0.00 0.00 90 1015.9
20260508083056 3 0 0.0 0.0 0.00 0.00 0.00 90 1015.9
20260508082545 3 0 0.0 0.0 0.00 0.00 0.00 90 1016.0
20260508082045 3 0 0.0 0.0 0.00 0.00 0.00 90 1016.0
20260508081616 3 0 0.0 0.0 0.00 0.00 0.00 90 1016.0
20260508081046 3 0 0.0 0.0 0.00 0.00 0.00 89 1016.0
20260508080545 3 0 0.0 0.0 0.00 0.00 0.00 89 1015.9
20260508080101 3 0 0.0 0.0 0.00 0.00 0.00 89 1015.9
20260508075547 3 0 0.0 0.0 0.00 0.00 0.00 89 1016.0
20260508075046 3 0 0.0 0.0 0.00 0.00 0.00 89 1016.0
20260508074552 3 0 0.0 0.0 0.00 0.00 0.00 89 1016.0
20260508074046 3 0 0.0 0.0 0.00 0.00 0.00 89 1015.9
20260508073546 3 0 0.0 0.0 0.00 0.00 0.00 89 1015.9
20260508073052 3 0 0.0 0.0 0.00 0.00 0.00 89 1015.8
20260508072544 3 0 0.0 0.0 0.00 0.00 0.00 89 1015.8
20260508072047 3 0 0.0 0.0 0.00 0.00 0.00 89 1016.0
20260508071556 3 0 0.0 0.0 0.00 0.00 0.00 89 1016.0
20260508071042 3 0 0.0 0.0 0.00 0.00 0.00 88 1015.9
20260508070547 3 0 0.0 0.0 0.00 0.00 0.00 88 1015.9
20260508070051 3 0 0.0 0.0 0.00 0.00 0.00 88 1016.0
20260508065542 3 0 0.0 0.0 0.00 0.00 0.00 88 1016.0
20260508065044 3 0 0.0 0.0 0.00 0.00 0.00 87 1016.0
20260508064554 4 0 0.0 0.0 0.00 0.00 0.00 87 1016.0
20260508064048 4 0 0.0 0.0 0.00 0.00 0.00 87 1016.1
20260508063544 4 0 0.0 0.0 0.00 0.00 0.00 86 1016.1
20260508063103 4 0 0.0 0.0 0.00 0.00 0.00 86 1016.2
20260508062544 4 0 0.0 0.0 0.00 0.00 0.00 86 1016.1
20260508062045 4 0 0.0 0.0 0.00 0.00 0.00 86 1016.1
20260508061554 4 0 0.0 0.0 0.00 0.00 0.00 86 1016.1
20260508061045 5 0 0.0 0.0 0.00 0.00 0.00 86 1016.1
20260508060545 5 0 0.0 0.0 0.00 0.00 0.00 86 1016.2
20260508060055 5 0 0.0 0.0 0.00 0.00 0.00 85 1016.2
20260508055545 5 0 0.0 0.0 0.00 0.00 0.00 85 1016.3
20260508055049 5 0 0.0 0.0 0.00 0.00 0.00 85 1016.2
20260508054551 5 0 0.0 0.0 0.00 0.00 0.00 84 1016.1
20260508054040 5 0 0.0 0.0 0.00 0.00 0.00 84 1016.0
20260508053541 5 0 0.0 0.0 0.00 0.00 0.00 84 1016.1
20260508053056 5 0 0.0 0.0 0.00 0.00 0.00 83 1016.1
20260508052541 5 0 0.0 0.0 0.00 0.00 0.00 83 1016.0
20260508052041 5 0 0.0 0.0 0.00 0.00 0.00 83 1016.1
20260508051556 5 0 0.0 0.0 0.00 0.00 0.00 82 1016.2
20260508051043 5 0 0.0 0.0 0.00 0.00 0.00 81 1016.1
20260508050542 6 0 0.0 0.0 0.00 0.00 0.00 80 1016.1
20260508050055 6 0 0.0 0.0 0.00 0.00 0.00 80 1016.1
20260508045543 6 0 0.0 0.0 0.00 0.00 0.00 79 1016.2
20260508045041 6 0 0.0 0.0 0.00 0.00 0.00 79 1016.2
20260508044600 6 0 0.0 0.0 0.00 0.00 0.00 78 1016.2
20260508044041 6 0 0.0 0.0 0.00 0.00 0.00 77 1016.2
20260508043541 6 0 0.0 0.0 0.00 0.00 0.00 77 1016.2
20260508043053 6 0 0.0 0.0 0.00 0.00 0.00 76 1016.2
20260508042541 6 0 0.0 0.0 0.00 0.00 0.00 76 1016.1
20260508042042 6 0 0.0 0.0 0.00 0.00 0.00 76 1016.2
20260508041550 6 0 0.0 0.0 0.00 0.00 0.00 75 1016.2
20260508041040 7 0 0.0 0.0 0.00 0.00 0.00 74 1016.2
20260508040543 7 0 0.0 0.0 0.00 0.00 0.00 74 1016.2
20260508040055 7 0 0.0 0.0 0.00 0.00 0.00 73 1016.2
20260508035543 7 0 0.0 0.0 0.00 0.00 0.00 72 1016.1
20260508035041 7 0 0.0 0.0 0.00 0.00 0.00 72 1016.1
20260508034552 7 0 0.0 0.0 0.00 0.00 0.00 71 1016.1
20260508034042 7 0 0.0 0.0 0.00 0.00 0.00 69 1016.1
20260508033540 7 0 0.0 0.0 0.00 0.00 0.00 69 1016.1
20260508033055 7 0 0.0 0.0 0.00 0.00 0.00 69 1016.2
20260508032544 8 0 0.0 0.0 0.00 0.00 0.00 69 1016.2
20260508032041 8 0 0.0 0.0 0.00 0.00 0.00 69 1016.2
20260508031556 8 0 0.0 0.0 0.00 0.00 0.00 68 1016.2
20260508031040 8 0 0.0 0.0 0.00 0.00 0.00 68 1016.2
20260508030541 8 0 0.0 0.0 0.00 0.00 0.00 68 1016.1
20260508030053 8 0 0.0 0.0 0.00 0.00 0.00 66 1016.2
20260508025541 8 0 0.0 0.0 0.00 0.00 0.00 65 1016.1
20260508025040 8 0 0.0 0.0 0.00 0.00 0.00 65 1016.1
20260508024553 9 0 0.0 0.0 0.00 0.00 0.00 64 1016.0
20260508024040 9 0 0.0 0.0 0.00 0.00 0.00 63 1015.8
20260508023541 9 0 0.0 0.0 0.00 0.00 0.00 63 1015.8
20260508023049 9 0 0.0 0.0 0.00 0.00 0.00 63 1015.7
20260508022542 9 0 0.0 0.0 0.00 0.00 0.00 62 1015.7
20260508022042 9 0 0.0 0.0 0.00 0.00 0.00 61 1015.6
20260508021553 9 0 0.0 0.0 0.00 0.00 0.00 62 1015.5
20260508021040 10 0 0.0 0.0 0.00 0.00 0.00 61 1015.5
20260508020541 10 0 0.0 0.0 0.00 0.00 0.00 61 1015.5
20260508020050 10 0 0.0 0.0 0.00 0.00 0.00 61 1015.3
20260508015541 10 0 0.0 0.0 0.00 0.00 0.00 61 1015.1
20260508015042 10 0 0.0 0.0 0.00 0.00 0.00 61 1015.0
20260508014552 10 0 0.0 0.0 0.00 0.00 0.00 59 1014.9
20260508014041 10 0 0.0 0.0 0.00 0.00 0.00 58 1014.8
20260508013540 10 0 0.0 0.0 0.00 0.00 0.00 57 1014.8
20260508013052 10 0 0.0 0.0 0.00 0.00 0.00 58 1014.6
20260508012542 10 0 0.0 0.0 0.00 0.00 0.00 56 1014.7
20260508012045 11 0 0.0 0.0 0.00 0.00 0.00 56 1014.6
20260508011551 11 0 0.0 0.0 0.00 0.00 0.00 56 1014.6
20260508011044 11 0 0.0 0.0 0.00 0.00 0.00 55 1014.5
20260508010542 11 0 0.0 0.0 0.00 0.00 0.00 54 1014.5
20260508010053 11 0 0.0 0.0 0.00 0.00 0.00 54 1014.5
20260508005541 11 0 0.0 1.6 0.00 0.00 0.00 53 1014.5
20260508005043 11 0 0.0 1.6 0.00 0.00 0.00 52 1014.5
20260508004557 12 0 0.0 0.0 0.00 0.00 0.00 54 1014.4
20260508004043 12 0 0.0 0.0 0.00 0.00 0.00 52 1014.4
20260508003541 12 0 0.0 0.0 0.00 0.00 0.00 50 1014.4
20260508003056 12 0 0.0 0.0 0.00 0.00 0.00 50 1014.2
20260508002542 12 0 0.0 0.0 0.00 0.00 0.00 50 1014.2
20260508002042 13 0 0.0 0.0 0.00 0.00 0.00 50 1014.2
20260508001556 13 0 0.0 0.0 0.00 0.00 0.00 50 1014.2
20260508001043 13 0 0.0 0.0 0.00 0.00 0.00 52 1014.1
20260508000541 13 0 0.0 3.2 0.00 0.00 0.00 49 1014.0
20260508000053 13 0 0.0 3.2 0.00 0.00 0.00 50 1013.8
20260507235543 13 0 0.0 3.2 0.00 0.00 0.00 49 1013.6
20260507235045 13 0 0.0 1.6 0.00 0.00 0.00 49 1013.5
20260507234550 14 0 0.0 0.0 0.00 0.00 0.00 49 1013.5
20260507234041 14 0 0.0 0.0 0.00 0.00 0.00 51 1013.6
20260507233547 14 0 0.0 0.0 0.00 0.00 0.00 51 1013.6
20260507233052 14 0 0.0 0.0 0.00 0.00 0.00 50 1013.4
20260507232542 15 0 0.0 0.0 0.00 0.00 0.00 49 1013.4
20260507232045 15 0 0.0 0.0 0.00 0.00 0.00 51 1013.4
20260507231554 15 0 0.0 0.0 0.00 0.00 0.00 49 1013.4
20260507231042 15 0 0.0 0.0 0.00 0.00 0.00 47 1013.3
20260507230545 15 0 0.0 0.0 0.00 0.00 0.00 50 1013.4
20260507230052 15 0 0.0 6.4 0.00 0.00 0.00 48 1013.4
20260507225544 15 0 0.0 6.4 0.00 0.00 0.00 49 1013.3
20260507225045 15 0 0.0 6.4 0.00 0.00 0.00 47 1013.4
20260507224558 15 0 0.0 4.8 0.00 0.00 0.00 49 1013.3
20260507224044 15 0 0.0 0.0 0.00 0.00 0.00 47 1013.2
20260507223545 15 0 0.0 0.0 0.00 0.00 0.00 49 1013.3
20260507223049 15 0 0.0 0.0 0.00 0.00 0.00 48 1013.2
20260507222546 15 0 0.0 0.0 0.00 0.00 0.00 52 1013.1
20260507222043 15 0 0.0 0.0 0.00 0.00 0.00 53 1013.1
20260507221550 15 0 0.0 0.0 0.00 0.00 0.00 53 1013.1
20260507221045 15 0 0.0 0.0 0.00 0.00 0.00 50 1013.1
20260507220544 15 0 0.0 0.0 0.00 0.00 0.00 54 1013.1
20260507220049 16 0 0.0 4.8 0.00 0.00 0.00 52 1013.1
20260507215543 16 0 0.0 4.8 0.00 0.00 0.00 53 1013.0
20260507215045 15 0 0.0 4.8 0.00 0.00 0.00 52 1012.8
20260507214605 16 0 0.0 3.2 0.00 0.00 0.00 49 1012.8
20260507214045 16 0 0.0 3.2 0.00 0.00 0.00 51 1012.9
20260507213545 16 0 0.0 4.8 0.00 0.00 0.00 54 1012.8
20260507213049 16 0 0.0 4.8 0.00 0.00 0.00 52 1012.8
20260507212546 16 0 0.0 9.7 0.00 0.00 0.00 53 1012.7
20260507212045 16 0 0.0 9.7 0.00 0.00 0.00 51 1012.5
20260507211556 17 329 0.0 4.8 0.00 0.00 0.00 51 1012.5
20260507211044 17 0 0.0 3.2 0.00 0.00 0.00 54 1012.5
20260507210542 16 0 0.0 3.2 0.00 0.00 0.00 51 1012.5
20260507210059 16 0 0.0 1.6 0.00 0.00 0.00 54 1012.3
20260507205544 16 0 0.0 1.6 0.00 0.00 0.00 49 1012.4
20260507205045 17 0 0.0 1.6 0.00 0.00 0.00 54 1012.3
20260507204547 17 0 0.0 0.0 0.00 0.00 0.00 54 1012.3
20260507204048 17 0 0.0 0.0 0.00 0.00 0.00 48 1012.2
20260507203545 17 0 0.0 0.0 0.00 0.00 0.00 51 1012.3
20260507203104 17 0 0.0 0.0 0.00 0.00 0.00 48 1012.2
20260507202545 18 0 0.0 3.2 0.00 0.00 0.00 46 1012.1
20260507202045 18 0 0.0 3.2 0.00 0.00 0.00 47 1012.3
20260507201607 18 0 0.0 3.2 0.00 0.00 0.00 49 1012.2
20260507201045 17 0 0.0 0.0 0.00 0.00 0.00 54 1012.4
20260507200545 17 0 0.0 1.6 0.00 0.00 0.00 54 1012.5
20260507200106 17 0 0.0 8.0 0.00 0.00 0.00 51 1012.6
20260507195545 17 0 0.0 8.0 0.00 0.00 0.00 50 1012.6
20260507195045 18 0 0.0 0.0 0.00 0.00 0.00 49 1012.5
20260507194552 18 0 0.0 1.6 0.00 0.00 0.00 48 1012.6
20260507194042 18 0 0.0 1.6 0.00 0.00 0.00 53 1012.7
20260507193541 18 0 0.0 1.6 0.00 0.00 0.00 49 1012.7
20260507193057 18 0 0.0 0.0 0.00 0.00 0.00 48 1012.7
20260507192546 18 0 0.0 0.0 0.00 0.00 0.00 45 1012.8
20260507192045 18 0 0.0 1.6 0.00 0.00 0.00 59 1012.8
20260507191549 18 0 0.0 1.6 0.00 0.00 0.00 45 1012.9
20260507191044 18 0 0.0 0.0 0.00 0.00 0.00 54 1013.0
20260507190546 18 0 0.0 0.0 0.00 0.00 0.00 51 1013.0
20260507190057 18 0 0.0 0.0 0.00 0.00 0.00 50 1013.1
20260507185546 18 0 0.0 0.0 0.00 0.03 0.00 57 1013.1
20260507185042 18 0 0.0 0.0 0.00 0.03 0.00 44 1013.1
20260507184556 18 0 0.0 0.0 0.00 0.03 0.00 52 1013.1
20260507184042 17 0 0.0 0.0 0.00 0.03 0.00 57 1013.2
20260507183543 17 0 0.0 0.0 0.00 0.03 0.00 57 1013.2
20260507183051 16 0 0.0 0.0 0.00 0.03 0.00 55 1013.5
20260507182545 17 0 0.0 0.0 0.00 0.03 0.00 53 1013.4
20260507182046 17 0 0.0 0.0 0.00 0.03 0.00 61 1013.3
20260507181549 17 0 0.0 0.0 0.00 0.03 0.00 57 1013.4
20260507181045 17 0 0.0 0.0 0.00 0.03 0.00 50 1013.2
20260507180549 18 0 0.0 0.0 0.00 0.03 0.00 50 1013.3
20260507180051 17 0 0.0 0.0 0.00 0.03 0.00 54 1013.4
20260507175550 18 0 0.0 0.0 0.00 0.03 0.00 52 1013.4
20260507175046 16 0 0.0 0.0 0.00 0.03 0.00 55 1013.5
20260507174551 16 0 0.0 0.0 0.00 0.03 0.00 56 1013.5
20260507174042 17 0 0.0 0.0 0.00 0.03 0.00 57 1013.6
20260507173545 17 0 0.0 0.0 0.00 0.03 0.00 50 1013.6
20260507173050 17 0 0.0 0.0 0.00 0.03 0.00 56 1013.6
20260507172547 17 0 0.0 0.0 0.00 0.03 0.00 54 1013.6
20260507172043 18 0 0.0 0.0 0.00 0.03 0.00 53 1013.6
20260507171549 17 0 0.0 1.6 0.00 0.03 0.00 61 1013.9
20260507171045 16 0 0.0 1.6 0.00 0.03 0.00 62 1014.0
20260507170542 17 0 0.0 1.6 0.00 0.03 0.00 49 1014.0
20260507170059 16 0 0.0 0.0 0.00 0.03 0.00 61 1014.0
20260507165545 15 0 0.0 0.0 0.00 0.05 0.00 58 1014.1
20260507165043 16 0 0.0 0.0 0.00 0.05 0.00 55 1014.1
20260507164603 15 0 0.0 0.0 0.00 0.05 0.00 58 1014.1
20260507164045 14 0 0.0 0.0 0.00 0.05 0.00 61 1014.1
20260507163543 15 0 0.0 0.0 0.00 0.05 0.00 60 1014.2
20260507163052 15 0 0.0 0.0 0.00 0.05 0.00 56 1014.2
20260507162543 15 0 0.0 0.0 0.00 0.05 0.00 65 1014.2
20260507162042 14 0 0.0 0.0 0.00 0.05 0.00 58 1014.3
20260507161551 16 0 0.0 0.0 0.00 0.05 0.00 58 1014.3
20260507161045 16 0 0.0 0.0 0.00 0.05 0.00 60 1014.4
20260507160545 15 0 0.0 0.0 0.00 0.05 0.00 62 1014.3
20260507160054 15 0 0.0 0.0 0.00 0.05 0.00 65 1014.4
20260507155542 14 0 0.0 0.0 0.00 0.05 0.00 62 1014.5
20260507155043 14 0 0.0 0.0 0.00 0.05 0.00 67 1014.5
20260507154556 15 0 0.0 0.0 0.00 0.05 0.00 56 1014.5
20260507154044 14 0 0.0 0.0 0.00 0.05 0.00 59 1014.4
20260507153545 13 0 0.0 0.0 0.00 0.05 0.00 62 1014.5
20260507153053 14 0 0.0 0.0 0.00 0.05 0.00 59 1014.5
20260507152545 15 0 0.0 0.0 0.00 0.05 0.00 61 1014.4
20260507152044 15 0 0.0 0.0 0.00 0.05 0.00 64 1014.4
20260507151550 13 0 0.0 0.0 0.00 0.05 0.00 60 1014.4
20260507151043 13 0 0.0 0.0 0.00 0.05 0.00 62 1014.4
20260507150543 13 0 0.0 0.0 0.00 0.05 0.00 59 1014.5
20260507150054 14 0 0.0 0.0 0.00 0.05 0.00 57 1014.5
20260507145543 14 0 0.0 8.0 0.00 0.10 0.00 64 1014.6
20260507145044 14 0 0.0 8.0 0.00 0.10 0.00 60 1014.6
20260507144555 13 0 0.0 3.2 0.00 0.10 0.00 62 1014.6
20260507144044 13 0 0.0 3.2 0.00 0.10 0.00 58 1014.6
20260507143545 14 0 0.0 3.2 0.00 0.10 0.00 64 1014.6
20260507143101 14 0 0.0 3.2 0.00 0.10 0.00 66 1014.6
20260507142545 13 0 0.0 0.0 0.00 0.10 0.00 66 1014.6
20260507142045 13 0 0.0 0.0 0.00 0.10 0.00 72 1014.6
20260507141555 13 0 0.0 0.0 0.00 0.10 0.00 64 1014.6
20260507141043 13 0 0.0 0.0 0.00 0.10 0.00 70 1014.7
20260507140545 12 0 0.0 0.0 0.00 0.10 0.00 69 1014.8
20260507140052 12 0 0.0 0.0 0.00 0.10 0.00 64 1014.9
20260507135545 12 0 0.0 1.6 0.00 0.15 0.00 69 1015.0
20260507135043 12 0 0.0 1.6 0.00 0.15 0.00 70 1015.0
20260507134554 12 0 0.0 1.6 0.00 0.15 0.00 69 1015.1
20260507134043 11 0 0.0 0.0 0.00 0.15 0.00 74 1015.1
20260507133544 11 0 0.0 0.0 0.00 0.15 0.00 75 1015.3
20260507133132 11 0 0.0 0.0 0.00 0.15 0.00 76 1015.2
20260507132543 11 0 0.0 0.0 0.00 0.15 0.00 76 1015.2
20260507132043 11 0 0.0 0.0 0.00 0.15 0.00 79 1015.4